Content
SEND FEEDBACK

Daily
Averages
Monthly
Summary
United States of America

DEDHAM, MASSACHUSETTS


Home > North America > United States > Massachusetts
Elevation: 64 feet     Latitude: 42 13N     Longitude: 071 07W

WEATHER
 
SELECT A DAY
Number of Records: 136,960;   Date Range: 10/15/98 - 12/20/14
 
SHARE

PRINT THIS DATA

[ ← Previous Day ]
WEATHER ALMANAC - MAY 9, 2013
[ Next Day → ]
[ °C ]   °F
Weather ElementAverageHighLow
Temperature58.5 °F64.9 °F (2:54 pm)55.9 °F (7:54 pm)
Dewpoint56.4 °F57.9 °F (1:54 am)54 °F (7:54 pm)
Humidity92.9 %97 % (4:54 am)73 % (2:54 pm)
Barometer29.98 in30.04 in (1:54 am)29.91 in (6:54 pm)
Wind Speed3.2 mph12.7 mph (7:54 pm)
Weather ElementAverage
Wind DirectionNE (45 °)

Weather ElementTotal
Precipitation0.36 in
Heating Degree Days4.6 (Base 65)
Growing Degree Days10.4 (Base 50)
Averaged from 22 records on May 9, 2013
WEATHER CONDITIONS BREAKOUT
WIND DIRECTION BREAKOUT
WEATHER BY HOUR - MAY 9, 2013
[ °C ]   °F
Local TimeTemperatureDewpointHumidityBarometerVisibilityWind DirectionWind SpeedGust SpeedPrecipitationEventsConditions
1:54 AM59.0 °F57.9 °F96 %30.04 inSouth (180°)5.8 mph0.01 in
2:54 AM59.0 °F57.9 °F96 %30.04 inCalm
3:54 AM59.0 °F57.9 °F96 %30.01 inCalm
4:54 AM57.9 °F57.0 °F97 %30.01 inCalm
5:54 AM57.9 °F57.0 °F97 %30.01 inCalm
6:54 AM59.0 °F57.0 °F93 %30.01 inCalm
7:54 AM59.0 °F57.0 °F93 %30.01 inENE (60°)4.6 mph
8:54 AM57.9 °F57.0 °F97 %30.03 inCalm
9:54 AM59.0 °F57.9 °F96 %30.01 inENE (60°)5.8 mph0.04 in
10:54 AM59.0 °F57.0 °F93 %30.01 inCalm
11:54 AM59.0 °F57.0 °F93 %30.01 inCalm
12:54 PM59.0 °F57.0 °F93 %30.00 inCalm0.09 in
1:54 PM62.1 °F57.9 °F86 %29.97 inCalm0.04 in
2:54 PM64.9 °F55.9 °F73 %29.96 inCalm
4:54 PM57.9 °F55.0 °F90 %29.94 inVariable4.6 mph0.06 in
5:54 PM57.0 °F55.0 °F93 %29.93 inNE (40°)6.9 mph0.12 in
6:54 PM57.0 °F55.0 °F93 %29.91 inENE (70°)9.2 mph
7:54 PM55.9 °F54.0 °F93 %29.92 inENE (70°)12.7 mph
8:54 PM55.9 °F54.0 °F93 %29.93 inENE (70°)8.1 mph
9:54 PM57.0 °F55.0 °F93 %29.93 inESE (120°)4.6 mph
10:54 PM57.9 °F55.9 °F93 %29.92 inCalm
11:54 PM55.9 °F55.0 °F97 %29.92 inNW (320°)8.1 mph
Hourly data recorded from KMQE, located miles away from Dedham, Massachusetts







STORIES FROM OUR PARTNERS